Location: Brachbach
(49.1847°N, 9.7240°E)
Time: 14:19:09
(UTC+00:00)

Nimbus 7 Rocket - Pass Details

Date: 08 August 2024
Orbit: 921 x 965 km, 99.4° (Epoch: 14 September)

Event Time Altitude Azimuth Distance (km) Brightness Sun altitude
Rises 23:41:08 0° 19° (NNE) 3,599 8.7 -25.0°
Reaches altitude 10° 23:43:42 10° 26° (NNE) 2,646 7.7 -24.9°
Maximum altitude 23:49:22 47° 99° (E) 1,213 4.9 -24.9°
Enters shadow 23:50:29 42° 130° (SE) 1,296 4.9 -24.8°
